Wind_Speed
21 21 21 20 19 19 19 19 19 19 18 18 17 17 17 17 17 16 16 17 16 16 16 16 16 17 17 17 18 18 19 19 19 20 20 20 20 21 21 21 22 21 21 21 22 22 22 22 22 22 21 20 20 19 19 19 20 19 19 18 19 20 22 24 25 24 24 23 23 22 22 21 22 24 23 23 23 24 25 26 27 26 27 28 25 24 24 24
22 22 21 21 21 21 21 21 21 20 20 20 20 20 20 19 19 19 19 19 19 19 19 19 19 19 20 20 20 21 21 22 23 23 22 22 22 23 23 22 22 22 22 22 23 23 23 23 22 21 20 20 20 20 21 21 21 20 20 20 20 22 24 25 26 26 26 24 23 22 22 22 22 23 23 23 23 24 25 28 28 26 28 30 27 25 24 25
24 24 23 23 23 23 23 23 23 23 23 23 23 23 22 22 22 22 22 22 22 22 22 22 22 22 22 22 22 23 23 24 25 25 24 24 24 24 24 23 22 22 23 23 23 23 23 22 21 21 20 21 22 23 23 23 23 22 23 22 22 24 25 26 27 27 26 25 23 23 23 22 23 24 23 24 24 23 25 29 29 26 28 31 29 27 25 24
26 26 26 26 26 26 26 26 25 25 25 25 25 25 25 25 25 25 25 25 25 25 25 25 25 25 24 24 24 25 25 26 27 27 26 25 25 25 25 24 23 23 23 23 23 23 22 22 22 22 22 23 24 25 25 26 25 24 24 24 24 26 27 27 28 27 26 25 24 24 24 23 24 24 24 26 26 22 23 29 30 26 27 29 30 30 28 26
29 29 29 29 29 28 28 28 28 28 28 28 28 28 28 28 28 28 28 28 28 28 28 28 28 27 27 27 26 26 27 27 28 28 26 27 27 26 26 25 24 23 23 23 23 22 22 23 24 24 25 25 25 26 27 27 27 26 25 26 27 28 28 27 27 27 27 26 25 25 25 25 24 24 25 25 24 22 23 30 31 28 28 28 28 30 31 29
32 32 32 32 32 31 31 31 31 31 30 30 30 30 31 30 31 31 31 31 31 31 31 31 30 30 29 29 28 28 27 28 29 28 27 28 28 27 25 25 24 24 24 23 23 23 24 25 26 26 26 26 27 28 29 29 29 28 26 27 30 31 30 29 29 29 28 28 27 28 27 26 26 26 23 20 21 21 24 31 32 29 27 27 26 28 30 30
34 34 35 35 35 34 34 34 34 33 33 33 33 33 33 33 33 33 34 34 33 34 33 33 32 31 31 29 28 26 25 29 31 27 26 27 26 26 25 25 25 25 25 25 25 26 27 27 28 29 29 29 29 30 31 31 31 30 28 29 31 32 31 31 31 31 30 30 29 31 29 27 29 31 23 18 20 23 25 30 32 27 26 26 26 27 29 30
34 34 35 36 36 37 37 36 36 36 36 35 35 35 35 35 36 36 36 36 36 35 35 34 33 32 30 28 26 23 23 30 31 27 26 26 26 26 26 25 26 26 27 27 28 29 29 30 31 31 31 31 31 31 32 33 32 32 31 31 31 32 32 32 32 32 32 32 33 34 32 30 33 35 24 17 21 27 29 31 31 28 26 27 27 28 30 31
33 33 34 35 36 36 37 37 38 38 38 37 37 37 37 37 37 37 37 37 37 35 35 34 32 31 28 26 24 20 24 31 29 27 27 27 27 27 27 27 28 28 29 30 31 31 32 33 33 34 33 32 31 31 32 34 33 32 33 33 32 33 33 33 33 33 35 35 36 38 36 33 35 36 27 19 24 31 33 32 32 31 28 28 29 29 29 29
33 33 33 33 33 34 35 36 36 37 37 37 37 37 36 36 36 35 35 35 34 33 32 31 30 29 26 25 22 18 26 31 28 29 30 29 30 29 29 30 30 31 32 32 33 34 34 35 34 35 35 32 31 31 32 34 34 34 34 34 33 34 34 33 33 34 37 38 39 41 40 36 36 37 29 23 30 34 34 33 32 32 30 29 29 29 29 28
35 34 34 33 33 33 33 33 33 34 34 34 34 33 33 33 32 32 32 32 31 31 30 29 29 28 26 25 21 20 28 31 30 32 32 32 33 32 32 32 33 34 34 34 35 35 36 35 35 36 36 34 32 32 33 34 36 36 36 35 34 35 34 33 34 35 38 39 39 43 43 38 37 37 31 30 36 36 35 33 33 33 31 30 30 30 30 28
38 37 36 35 34 33 33 33 33 33 32 32 32 32 31 31 31 31 31 31 31 31 31 31 30 30 29 26 24 26 30 31 32 34 35 35 35 34 34 34 35 36 36 36 36 36 37 37 36 37 37 36 34 34 35 35 37 37 38 38 36 36 34 32 36 37 38 39 39 44 46 41 35 35 34 35 39 38 37 35 34 34 32 31 30 30 30 30
39 39 38 38 37 36 36 35 34 34 33 33 33 33 32 32 32 32 33 33 33 33 33 34 34 34 34 29 27 31 32 32 34 35 36 36 36 35 35 35 36 37 37 38 38 38 39 38 38 38 38 38 37 37 38 37 39 40 41 41 39 38 35 32 36 37 35 38 39 44 49 44 35 33 35 38 40 40 40 37 36 35 32 32 31 31 31 30
40 40 40 39 39 39 38 38 37 37 36 36 35 35 35 35 35 35 36 36 37 37 37 38 38 38 37 32 29 32 33 34 36 36 37 37 36 36 36 37 38 38 39 39 39 40 40 40 40 40 40 40 39 39 40 40 41 41 42 43 41 42 37 33 35 35 34 37 40 44 50 48 38 32 34 39 41 42 42 39 37 36 33 33 32 32 31 29
41 41 41 41 41 40 40 40 40 40 40 39 39 39 39 39 39 39 39 40 40 40 41 41 41 41 40 34 32 34 34 36 38 38 38 38 37 37 37 38 39 39 40 40 40 41 41 42 42 42 42 41 41 41 42 43 43 42 44 45 43 44 41 35 34 35 36 39 42 45 51 51 41 33 34 38 40 42 42 39 37 36 34 33 33 32 31 30
41 41 41 41 41 41 41 41 42 42 42 42 42 41 41 41 41 42 42 42 42 42 42 43 42 43 42 37 35 36 37 39 39 39 39 39 39 39 39 40 40 40 41 41 41 42 42 44 44 44 43 42 42 42 45 48 46 44 46 47 45 44 44 40 35 34 37 42 45 47 50 52 45 37 35 37 39 41 42 39 36 36 34 33 32 32 31 30
42 43 43 43 43 43 43 43 43 43 43 43 43 43 43 43 43 43 43 44 44 44 44 44 44 45 45 41 38 38 39 40 40 40 40 40 40 40 40 40 40 41 41 42 42 43 44 45 46 46 45 43 42 44 49 51 49 47 47 48 47 45 45 44 38 34 38 43 47 47 47 47 46 41 37 35 36 40 41 38 36 35 34 33 32 31 32 31
43 43 43 43 44 44 44 44 44 45 45 45 45 45 45 45 45 45 45 46 46 46 46 47 46 47 46 43 41 41 41 41 41 41 40 40 40 40 41 41 41 42 42 43 44 44 46 47 48 48 45 43 44 47 51 52 50 50 49 49 49 47 46 44 41 37 40 44 46 46 45 45 46 43 39 36 35 38 39 36 35 35 35 33 31 31 31 32
44 44 44 44 44 44 44 45 45 45 46 46 45 46 46 47 46 47 47 47 47 47 48 48 48 48 47 45 44 45 43 42 42 42 40 40 40 41 41 42 42 43 43 44 45 46 47 49 50 49 45 44 47 49 51 51 51 51 50 50 50 49 47 44 42 42 43 46 46 44 44 46 47 45 41 39 38 38 36 34 34 34 33 30 29 29 30 31
45 45 45 45 45 45 45 45 46 46 46 46 46 46 47 47 47 47 47 47 47 48 48 49 49 48 47 46 47 48 46 45 44 42 41 41 41 41 42 42 43 44 44 45 47 47 48 51 52 48 45 46 49 50 50 50 50 51 51 51 51 51 49 46 45 45 46 49 49 44 44 46 46 44 43 42 41 38 33 32 33 33 31 28 27 28 29 30
46 46 46 46 46 46 46 46 46 46 46 47 47 47 47 48 48 48 48 48 49 49 50 50 50 50 48 48 49 49 49 48 45 43 42 41 42 42 43 43 44 44 45 46 48 47 48 52 51 46 46 48 50 49 50 50 50 51 51 52 52 52 52 50 49 49 49 51 52 48 47 47 44 42 42 42 41 37 32 31 31 32 30 27 27 29 31 31
48 48 48 48 48 48 48 48 48 48 48 48 48 49 49 49 49 49 49 49 48 49 51 50 50 50 49 50 50 50 51 50 47 44 43 42 42 43 44 45 45 45 46 47 47 47 50 52 49 47 48 49 49 49 50 50 51 51 52 53 54 53 53 54 52 51 51 52 52 51 51 50 47 45 43 42 39 35 33 31 30 31 30 29 29 30 32 33
49 49 48 48 48 48 49 49 49 49 49 49 50 50 50 50 50 50 50 51 49 48 49 50 51 52 51 51 51 50 50 49 47 46 45 45 44 44 45 46 46 46 47 46 46 48 52 52 49 48 49 50 50 51 51 51 52 52 52 54 56 54 55 56 54 52 52 52 52 52 53 52 51 50 46 45 40 34 33 33 32 34 33 32 32 31 33 33
51 50 50 50 50 49 50 50 50 50 50 50 51 51 51 51 51 51 51 53 53 51 49 50 52 54 53 53 52 50 49 47 46 46 45 46 46 46 46 46 47 48 47 46 47 50 52 52 50 50 51 52 52 52 52 52 53 53 53 55 56 55 55 56 56 55 53 53 52 53 54 54 54 53 49 47 45 39 36 34 35 37 36 34 33 32 32 33
52 52 52 53 52 52 51 51 51 50 51 51 52 52 52 52 52 52 53 54 55 54 51 50 52 53 52 52 51 50 49 47 46 45 44 45 45 45 45 45 47 47 45 46 48 50 50 49 49 50 51 51 52 52 51 52 54 54 54 55 55 56 56 56 56 56 55 55 53 53 54 55 55 55 51 48 47 44 40 37 38 39 36 34 33 32 31 31
49 50 51 52 53 53 53 53 52 52 52 52 53 53 53 53 53 53 54 55 55 54 54 54 52 51 51 50 49 48 47 45 44 43 42 42 43 43 44 43 44 45 45 46 49 50 49 47 47 49 50 50 51 50 49 52 55 55 54 54 55 55 55 54 54 54 55 56 55 53 54 56 56 55 54 51 50 47 41 37 38 38 35 32 31 31 30 29
47 47 49 50 52 53 52 52 52 51 52 52 53 53 53 53 53 52 51 53 54 55 56 56 54 51 49 48 48 47 45 44 44 43 42 42 42 43 44 43 43 45 46 47 49 49 47 46 46 46 47 48 47 45 46 49 51 52 51 51 51 51 51 51 51 52 53 54 55 55 53 53 56 55 54 53 52 51 45 38 36 36 34 31 28 29 30 30
45 46 46 48 49 50 51 50 49 49 50 50 51 52 52 52 50 48 47 51 55 55 55 55 53 51 49 48 48 47 46 45 44 44 44 43 43 43 43 43 43 44 44 45 47 45 43 43 43 43 43 43 41 41 43 45 45 46 46 46 47 47 47 48 49 50 51 52 55 55 49 50 54 54 53 53 50 49 43 33 35 39 37 35 33 31 30 31
44 44 45 46 46 47 47 46 45 46 47 48 49 50 50 49 47 46 47 52 56 57 55 54 53 52 51 49 48 47 46 46 45 44 44 44 44 44 43 43 43 43 42 43 44 43 42 42 42 43 42 40 40 41 42 42 43 43 43 43 44 45 45 46 47 48 49 51 53 51 47 47 51 52 53 52 48 46 39 32 38 45 43 41 39 37 36 34
44 44 44 45 46 47 47 45 45 45 46 47 48 49 49 48 48 48 51 55 57 56 54 54 53 51 51 50 49 48 47 46 45 44 44 44 44 45 45 45 45 45 44 44 43 42 42 43 43 43 42 41 42 42 42 43 43 42 42 43 44 46 46 47 47 47 48 50 49 46 45 45 48 52 54 50 46 46 44 42 46 48 47 47 45 43 42 40
47 46 46 46 46 48 49 48 47 47 47 48 49 49 49 50 51 53 56 57 56 56 55 55 55 53 51 50 49 49 47 46 45 44 44 44 44 44 45 46 47 47 47 47 46 45 45 45 46 45 44 45 46 46 46 45 45 44 45 45 46 48 49 50 50 49 49 50 47 46 47 47 49 53 54 51 48 47 48 48 49 49 50 52 53 51 48 46
50 49 50 50 51 52 53 52 50 50 50 50 50 50 50 51 53 56 58 56 55 56 56 55 55 54 52 51 50 50 49 48 48 48 47 47 46 46 46 48 49 50 51 50 50 50 50 49 49 50 49 49 49 49 49 49 48 48 48 47 48 50 52 53 53 52 52 51 50 50 51 52 52 53 54 52 51 50 50 51 52 53 55 55 57 58 57 55
52 52 52 54 55 54 53 52 52 52 51 51 51 52 52 53 56 57 56 53 52 53 53 53 53 52 51 51 51 52 52 52 52 52 53 52 52 51 51 51 51 52 53 54 54 55 55 54 53 53 52 51 51 50 50 50 50 50 50 49 49 51 53 55 55 55 55 55 55 55 56 56 55 55 55 54 54 54 53 55 58 59 60 59 59 61 63 64
51 49 49 50 51 51 49 48 48 49 49 49 49 49 51 54 54 54 51 47 46 47 47 48 49 49 50 51 53 54 54 54 54 54 54 55 55 55 53 53 53 53 53 55 57 58 59 58 58 56 55 54 53 51 50 51 51 51 50 50 52 52 53 55 55 57 59 60 60 60 61 60 57 58 59 58 59 60 58 61 64 63 63 63 63 64 66 67
49 49 48 48 49 49 49 49 50 51 51 51 50 50 51 51 51 50 49 47 47 47 47 46 47 49 50 51 52 52 53 54 55 55 55 55 55 55 54 53 53 53 53 55 57 58 59 60 60 59 58 57 55 53 52 52 52 53 53 54 55 53 52 54 57 58 59 61 62 63 64 63 61 61 62 61 63 64 63 65 66 66 66 66 67 67 68 69
47 47 47 48 48 49 50 50 50 51 51 52 53 55 55 54 54 54 54 53 54 55 54 53 52 52 53 52 52 53 54 54 54 54 54 54 54 54 53 53 53 52 52 53 54 55 57 59 58 58 58 56 55 55 54 54 55 57 57 57 56 55 55 57 58 58 57 59 63 64 65 66 64 63 64 65 65 66 66 67 68 68 69 69 69 69 69 70
48 47 45 44 44 44 44 44 44 44 44 46 50 53 53 53 53 54 55 55 56 58 59 60 61 60 59 59 59 59 59 59 57 57 57 57 57 56 55 55 54 54 54 54 55 55 57 59 58 57 58 58 57 57 57 57 58 58 58 57 56 57 59 58 58 59 59 61 64 65 65 66 65 65 67 67 67 68 69 70 71 71 71 71 71 72 71 71
60 59 57 53 52 51 49 47 46 45 45 47 49 49 49 49 49 50 52 52 52 54 57 58 60 60 59 59 59 59 60 61 61 62 61 61 61 60 59 59 59 58 58 58 59 59 60 61 61 59 60 61 60 59 60 60 59 58 57 57 57 58 59 58 58 59 59 60 62 62 63 64 66 67 67 67 68 70 71 71 71 71 71 71 72 72 72 71
65 65 63 62 61 62 60 58 56 56 58 58 55 53 53 52 51 51 51 51 51 54 56 55 56 57 57 57 57 57 58 59 60 61 62 62 62 61 61 61 61 62 62 62 63 63 63 64 64 63 63 64 64 63 63 61 59 58 58 58 59 59 60 58 57 55 56 59 61 62 61 62 66 67 66 68 69 69 69 67 66 65 64 65 66 66 66 66
65 64 62 61 60 61 62 62 63 66 69 68 65 64 64 62 60 59 58 59 61 63 64 63 63 64 63 63 63 63 64 65 65 65 66 66 66 66 65 65 65 65 65 65 64 64 63 63 64 64 65 67 68 66 63 60 58 59 60 60 61 61 59 58 58 56 58 62 63 63 61 61 61 60 58 62 64 63 62 62 62 63 63 64 64 64 65 65
64 64 62 60 59 59 61 63 65 68 70 70 69 69 66 63 62 62 63 65 66 68 68 68 69 69 68 68 67 67 67 67 67 67 68 68 68 68 68 67 67 66 65 64 63 63 62 62 62 62 64 66 65 62 60 59 59 59 59 59 59 58 56 58 61 59 58 62 62 61 62 61 55 51 52 56 60 62 63 64 65 66 67 68 68 67 67 67
65 64 63 62 61 60 60 62 63 65 67 67 67 66 64 63 64 64 65 66 66 65 65 66 66 66 66 66 65 65 65 65 65 64 64 64 63 63 63 64 63 63 62 62 62 61 61 62 63 64 63 63 60 59 59 59 59 58 58 56 54 53 52 55 59 57 55 59 58 57 61 59 51 48 51 56 59 61 63 64 65 66 66 67 68 69 69 69
66 65 65 64 64 63 63 64 64 64 64 62 62 63 64 65 66 66 67 68 67 66 64 63 61 60 61 61 61 61 62 63 63 62 61 60 59 59 58 57 58 58 58 59 60 60 60 61 63 63 61 59 59 59 59 58 57 55 54 51 49 49 49 52 54 53 53 55 55 57 62 63 57 54 56 58 59 60 62 63 64 65 65 66 67 69 70 71
67 67 67 66 66 66 67 66 65 64 62 60 60 61 61 62 63 63 64 64 64 64 63 62 60 58 58 58 58 58 58 59 60 59 58 58 57 57 56 55 55 55 56 57 58 58 58 58 58 58 58 58 59 58 57 56 55 54 52 52 54 55 56 58 58 59 61 62 62 65 69 70 68 65 65 65 66 66 66 66 66 68 69 70 71 72 73 74
68 68 68 67 67 67 67 65 64 63 62 60 60 59 58 59 58 57 58 58 59 59 59 58 58 57 57 57 57 56 56 56 57 57 57 56 56 56 56 55 55 56 56 57 57 57 57 58 57 58 59 60 60 59 58 58 59 59 59 60 63 64 64 64 63 64 67 68 68 69 70 69 67 66 66 66 67 67 67 67 68 69 71 72 74 75 76 77
68 68 68 67 66 66 65 63 62 61 59 58 58 56 55 55 54 53 54 55 55 55 55 56 56 55 56 56 56 56 55 55 57 57 57 57 57 56 57 57 57 57 58 58 57 57 59 60 60 61 62 63 64 63 63 64 66 67 67 66 67 67 66 65 65 67 68 67 66 66 65 66 65 64 65 67 69 70 70 70 70 70 72 73 74 76 77 79
67 67 66 65 65 64 63 61 60 58 56 55 55 54 53 52 53 53 53 54 54 54 54 55 55 56 56 56 56 57 56 56 57 58 57 57 57 58 58 58 58 58 59 59 59 60 61 63 63 63 64 65 65 66 66 67 68 69 70 69 69 69 68 68 71 72 70 71 72 71 69 72 72 71 72 73 74 75 76 75 75 76 76 77 78 79 80 81
64 64 64 63 63 62 61 59 58 56 55 55 55 54 53 53 54 53 53 54 54 54 55 56 56 55 56 56 57 58 57 57 58 58 57 58 58 59 59 59 58 59 59 60 61 61 63 65 64 64 66 66 66 67 67 69 70 70 71 71 71 71 71 72 75 74 73 75 78 76 75 77 77 75 75 76 76 76 77 77 77 77 78 78 78 79 80 81
63 62 61 61 60 60 59 58 57 57 56 56 56 55 54 54 54 54 54 55 56 56 56 57 57 56 56 56 58 59 58 59 59 58 58 58 58 58 59 59 59 59 59 59 60 61 64 65 64 65 67 67 65 65 67 69 71 71 71 72 72 72 72 74 75 74 75 77 78 77 78 79 78 77 78 78 78 78 77 77 76 76 75 75 76 77 78 79
61 60 59 59 58 58 58 57 57 57 56 56 57 55 54 54 54 54 56 56 57 57 57 57 58 57 57 57 59 59 59 58 59 59 58 59 59 59 59 60 59 59 59 59 59 61 63 64 64 65 67 67 65 64 66 69 70 71 71 71 70 71 72 73 74 74 75 77 77 77 79 81 80 79 79 79 79 78 77 75 74 72 71 70 70 70 72 74
59 58 58 57 57 56 56 56 56 56 56 56 56 55 55 56 56 56 58 58 58 58 58 58 59 58 58 58 58 59 59 58 59 59 58 58 59 59 59 60 59 59 59 59 60 61 63 64 64 65 69 69 66 66 69 71 72 74 73 71 70 72 73 74 75 75 76 78 79 79 81 82 81 79 78 78 78 77 76 75 73 73 73 73 73 73 74 76
57 57 56 56 56 56 55 55 55 56 56 56 56 56 56 57 58 58 59 60 60 59 59 59 59 58 58 57 57 58 58 58 59 59 59 59 59 59 59 60 60 60 60 61 62 63 64 66 67 68 72 72 69 69 73 74 77 79 75 72 73 74 75 76 77 76 77 79 81 81 81 80 79 78 77 77 77 77 76 75 75 76 78 79 80 82 83 83
Wind_Direction
254 254 255 254 254 253 252 252 252 252 252 252 254 257 259 262 263 266 267 270 271 273 275 277 280 282 283 284 286 287 288 289 288 288 289 290 291 290 289 289 290 292 293 294 294 295 295 296 297 298 299 299 300 301 302 302 304 307 309 311 311 306 303 304 302 299 301 302 302 300 296 295 289 288 292 291 288 284 282 280 278 278 278 277 277 279 280 279
252 252 253 253 253 253 253 254 254 255 255 255 256 258 260 261 263 265 266 268 270 271 273 275 277 279 281 283 285 287 288 289 288 287 288 289 289 288 288 288 290 292 293 293 293 294 294 296 296 297 299 301 302 302 303 302 302 305 305 307 305 301 302 301 297 298 301 302 301 299 296 294 290 290 292 290 287 287 284 279 278 280 281 281 282 281 280 279
252 252 253 254 254 255 255 256 257 257 257 258 259 260 262 263 264 265 267 268 270 271 273 274 276 277 280 282 284 286 288 288 287 286 286 287 286 286 287 288 289 290 291 292 292 292 293 294 295 296 299 300 301 301 301 300 300 302 302 302 299 298 301 299 298 300 302 301 300 298 295 294 291 291 292 290 289 290 285 279 278 281 282 284 287 287 284 280
253 254 254 255 255 256 257 258 259 259 260 261 262 263 264 265 267 267 268 270 271 272 274 275 276 277 280 281 283 285 287 286 284 284 286 285 285 286 287 288 288 288 288 289 289 290 291 292 293 295 297 298 299 299 299 298 298 300 301 300 297 297 300 300 300 301 301 301 300 297 295 293 291 291 291 292 296 296 286 280 281 282 282 283 287 291 292 288
255 255 256 256 257 257 258 259 260 260 261 262 264 265 266 268 269 269 270 271 273 274 275 277 277 279 280 282 284 285 286 284 281 283 284 284 284 285 286 286 287 287 286 285 286 287 288 290 292 293 295 296 296 297 297 296 297 298 299 298 295 295 298 299 298 300 301 300 300 296 294 294 292 290 292 300 309 303 287 282 283 285 286 288 291 293 294 294
256 257 257 257 258 258 259 260 260 261 262 263 264 266 267 269 270 271 272 272 274 275 276 278 279 280 281 283 284 285 286 283 279 280 282 282 284 285 285 284 284 284 283 283 284 285 286 288 290 291 292 294 294 295 294 294 294 296 297 295 293 295 297 297 296 300 300 298 297 293 293 294 291 287 294 315 320 301 286 281 282 287 291 293 295 294 294 294
259 259 259 259 259 260 260 261 261 262 263 264 265 266 268 269 271 272 273 274 275 276 277 278 279 280 280 282 282 284 285 279 276 279 281 282 284 283 283 283 282 282 282 282 283 284 285 286 288 289 290 291 292 292 292 292 292 294 295 291 291 294 295 294 296 298 297 295 292 290 292 292 290 288 299 328 317 294 284 281 284 291 294 293 293 291 290 290
262 262 261 262 262 262 262 263 264 264 265 266 267 268 270 271 272 274 275 275 276 276 277 277 278 278 278 279 279 282 279 273 277 282 282 282 282 281 281 281 282 282 282 282 283 283 284 286 287 289 289 289 290 290 291 291 292 293 292 290 291 293 292 293 295 296 293 292 289 288 290 288 288 291 304 325 305 288 284 284 289 294 295 295 293 290 288 288
264 264 264 264 264 264 264 265 265 266 267 268 269 270 271 272 273 274 275 275 275 276 276 276 276 275 275 275 275 278 272 272 279 283 282 281 280 280 281 281 281 281 281 282 283 284 285 286 288 288 288 288 289 290 290 291 292 292 291 291 292 290 290 292 292 292 290 289 287 287 287 286 287 292 306 314 291 284 287 290 293 295 297 298 296 294 292 292
265 266 266 266 266 266 266 266 266 267 267 268 269 270 271 272 273 273 273 274 274 274 274 274 273 273 272 271 273 273 270 274 280 281 281 281 280 281 282 282 282 282 282 282 283 284 285 286 287 287 287 289 290 290 290 291 292 292 292 292 292 290 289 289 290 289 286 286 286 286 286 288 289 293 304 300 284 284 289 292 293 294 297 298 299 300 299 300
264 265 265 266 266 266 267 267 267 267 267 268 268 268 269 270 270 271 272 272 273 273 273 273 272 272 271 271 274 270 270 277 281 281 282 281 282 283 284 285 285 284 284 284 284 285 285 286 287 286 287 289 289 290 290 291 291 292 293 293 292 290 289 289 287 284 283 285 287 288 287 288 290 294 298 290 283 286 289 292 292 293 297 299 301 303 303 304
263 264 264 265 265 266 266 266 266 266 266 267 267 267 267 268 268 269 270 271 272 272 273 273 272 273 272 273 275 271 272 278 280 280 281 282 284 285 286 286 285 285 285 285 285 285 285 286 286 286 287 288 289 289 289 290 291 292 293 292 293 291 290 289 284 281 285 289 291 290 288 287 289 292 292 286 285 287 289 292 293 293 298 300 301 302 303 304
262 263 264 264 265 265 265 266 266 266 266 266 266 266 267 267 268 269 270 270 271 272 273 273 274 275 275 275 275 274 275 276 277 278 279 281 284 285 285 285 285 285 285 285 285 285 285 285 285 285 285 286 287 289 289 290 290 292 292 292 292 289 287 285 283 286 292 293 292 289 288 288 289 290 289 287 287 288 289 292 293 295 299 300 300 299 300 300
263 263 264 265 265 266 266 266 266 266 266 266 266 267 267 268 268 269 270 271 272 272 273 274 275 275 276 276 275 275 276 276 276 277 278 280 282 283 283 283 283 283 283 283 284 284 284 284 284 283 284 284 286 288 289 290 290 292 291 290 290 287 285 285 286 291 293 291 289 287 287 288 290 290 289 288 288 289 289 290 293 295 297 297 296 295 294 292
263 264 265 265 266 266 266 267 267 267 267 268 267 267 268 268 269 270 270 271 272 272 273 274 274 275 275 275 274 274 274 275 276 276 278 279 280 280 281 281 281 282 282 282 283 283 283 283 283 283 283 284 286 288 290 289 289 291 290 287 286 286 288 289 290 293 292 288 286 285 286 287 291 293 290 288 289 290 290 291 292 292 293 293 291 289 287 285
263 264 265 266 267 267 268 268 268 268 268 269 269 269 269 269 270 270 270 271 271 272 273 273 274 275 275 275 274 274 273 274 274 275 276 276 277 278 278 278 279 280 280 281 282 282 282 283 282 282 283 285 287 290 290 288 289 290 288 286 287 288 290 290 290 292 290 287 284 284 285 288 293 295 291 290 292 292 291 293 293 291 290 288 286 286 285 283
264 265 266 266 267 268 268 269 269 269 269 270 270 270 271 271 271 271 271 271 272 272 273 273 274 274 275 276 275 273 273 273 273 273 273 274 275 276 276 277 278 278 279 280 280 281 281 281 281 281 282 285 289 290 287 287 289 289 287 288 289 289 289 290 291 291 287 284 283 284 285 290 294 294 292 292 293 291 291 293 293 291 288 286 286 286 284 281
264 265 266 266 267 268 269 269 270 270 270 271 271 272 272 272 272 272 272 272 272 273 273 273 274 274 274 275 275 273 272 272 272 272 272 273 273 274 275 276 276 277 278 278 279 280 280 280 280 280 282 286 288 286 284 287 289 289 289 288 288 288 288 290 293 291 285 282 283 285 289 291 291 291 292 293 291 288 290 293 292 289 287 288 288 284 281 276
265 265 265 266 267 267 268 269 269 270 271 271 271 272 272 272 272 272 272 273 273 273 273 273 273 274 275 276 275 273 272 271 271 271 271 272 273 273 274 274 275 276 277 277 278 277 278 279 278 279 284 286 283 281 283 286 287 287 288 288 288 289 289 290 292 290 286 284 283 286 289 289 289 291 294 293 290 288 292 293 289 287 288 289 287 282 277 272
265 266 266 266 267 267 268 269 269 270 271 272 272 272 272 273 273 274 274 275 275 275 275 275 275 275 277 277 275 274 273 272 271 271 272 272 273 273 273 274 274 274 275 276 276 276 277 277 277 280 283 281 279 280 282 284 284 285 286 286 287 288 289 291 290 288 288 287 286 287 286 284 287 290 292 290 289 290 295 294 289 288 288 286 283 278 272 266
266 267 267 268 268 268 269 269 270 270 271 271 272 272 272 273 274 275 275 276 277 277 277 277 278 278 278 278 276 276 275 274 273 273 273 273 273 274 274 273 273 274 274 274 274 276 277 277 279 281 280 278 279 280 281 281 282 283 284 284 285 286 288 289 288 288 288 288 289 290 288 286 287 288 287 288 289 293 296 293 290 288 287 284 278 273 270 268
267 267 268 268 269 269 270 270 270 271 271 272 272 273 273 274 275 275 275 275 276 278 278 279 279 279 279 278 277 277 277 276 276 275 275 274 274 274 274 273 273 273 272 272 275 277 276 277 279 280 278 278 279 279 279 280 281 282 283 283 284 285 286 286 286 287 287 287 289 290 290 290 290 288 286 287 289 294 294 290 287 282 280 279 274 272 273 272
266 266 267 267 268 269 269 270 270 270 271 272 273 273 274 275 276 276 276 276 276 277 278 279 280 279 279 278 278 278 278 278 278 276 276 275 274 273 273 273 272 271 271 273 275 274 274 276 277 277 277 278 278 278 278 279 280 281 282 282 283 284 285 284 285 285 285 285 287 288 290 291 290 289 290 290 291 292 289 287 284 279 277 276 275 274 274 274
264 265 265 266 266 267 267 267 268 269 271 272 273 273 274 275 275 276 276 277 277 277 278 277 277 278 279 279 280 280 281 281 280 278 276 275 274 273 273 273 272 272 272 273 272 271 272 274 275 275 276 276 276 277 277 278 278 278 279 279 280 282 282 283 285 285 285 284 285 288 289 290 290 291 292 294 294 292 290 287 283 280 281 280 280 278 276 276
263 264 264 265 266 266 266 266 267 268 270 271 272 272 273 274 274 275 276 277 278 279 278 276 275 275 277 279 280 281 282 282 280 279 277 276 275 274 273 272 272 272 272 271 270 270 270 271 272 272 273 274 274 274 276 276 276 275 276 276 278 279 280 281 282 283 284 284 284 286 286 286 288 290 292 293 294 293 294 293 288 286 287 286 286 284 280 277
263 263 263 263 264 265 265 266 267 267 268 269 269 270 271 272 273 274 276 277 277 278 278 276 274 274 275 277 279 281 281 281 280 279 278 277 276 275 274 273 272 272 270 269 269 270 270 270 270 270 271 271 272 273 275 275 274 274 274 275 276 277 278 279 279 280 282 283 284 284 284 284 285 288 290 291 292 292 294 297 296 295 296 294 292 291 288 282
262 262 261 261 261 262 263 264 265 266 267 267 267 269 270 270 272 273 275 276 276 276 277 276 276 277 277 277 277 278 279 280 280 280 279 278 276 275 274 273 272 271 270 270 270 271 271 271 270 270 270 271 272 274 273 272 272 274 275 275 275 276 276 277 277 278 279 281 282 282 284 284 283 285 287 289 292 295 299 302 300 300 301 300 297 293 289 285
264 263 262 262 261 261 261 262 263 264 265 266 267 268 269 270 271 273 275 275 274 274 275 277 279 280 280 280 279 278 279 279 279 279 278 277 276 274 273 272 271 270 270 270 271 271 271 271 271 271 272 274 275 274 272 272 274 276 277 277 277 276 276 276 275 276 276 278 278 279 284 284 282 283 285 288 292 300 307 308 302 302 301 297 294 288 284 279
262 262 262 262 262 263 263 263 264 265 266 267 268 269 270 271 272 273 273 272 272 273 275 278 280 281 281 281 282 281 279 278 276 275 275 275 275 275 274 272 271 270 269 269 270 271 271 271 272 274 276 278 278 276 274 275 276 277 277 278 278 277 276 275 274 274 275 274 275 279 284 285 282 280 281 285 292 301 306 302 299 302 299 294 290 286 283 278
261 262 262 261 261 261 262 262 262 264 265 267 269 271 272 272 272 272 271 270 272 274 276 278 279 280 280 282 282 281 279 277 275 273 273 272 272 271 271 271 271 271 271 270 270 270 270 271 273 276 280 281 281 280 280 279 278 278 278 278 278 277 276 275 274 274 274 273 274 278 282 283 280 278 278 282 290 296 298 296 296 297 296 294 291 287 285 283
263 264 264 263 262 262 262 261 261 263 265 266 268 269 271 271 271 271 271 271 273 275 276 277 278 278 279 279 280 280 279 278 276 274 273 272 270 270 270 270 271 271 271 272 273 273 273 274 276 278 282 284 285 284 283 281 280 280 280 279 279 277 276 275 274 274 274 274 275 277 278 277 274 274 277 282 286 290 292 293 293 294 294 295 294 290 287 285
262 263 263 262 262 263 265 266 267 269 269 268 268 269 269 270 270 269 271 273 274 275 276 276 276 276 276 277 278 279 279 279 279 278 276 275 274 274 273 271 271 272 272 272 273 274 274 276 278 280 282 283 284 283 283 282 281 280 280 280 280 279 279 278 276 277 276 275 275 275 274 271 268 270 275 280 285 287 287 287 288 290 291 292 293 293 291 288
263 264 263 262 262 263 264 267 270 272 273 274 274 274 273 271 269 270 273 276 276 276 276 275 275 275 275 277 277 278 278 278 279 279 280 279 278 277 276 275 275 275 274 274 274 275 274 274 277 280 281 281 282 283 282 281 280 279 279 280 280 280 281 280 280 280 278 276 275 273 271 268 266 269 273 278 283 283 282 283 284 287 290 291 291 291 291 290
259 260 261 262 262 263 265 265 267 269 272 274 276 277 277 275 274 276 280 280 277 275 274 273 274 275 275 275 276 277 278 278 279 280 280 280 279 278 278 278 277 275 275 275 275 276 276 274 274 277 279 280 281 280 278 277 277 277 278 278 278 279 281 282 282 281 279 277 275 273 271 268 268 271 274 278 281 279 278 278 281 285 288 289 288 287 286 287
261 264 266 267 267 268 268 268 269 270 271 271 271 271 272 275 277 279 280 280 277 275 274 272 272 272 274 275 276 277 277 278 279 279 278 278 278 278 278 278 277 275 274 275 275 275 275 274 275 277 279 279 277 275 274 275 275 276 276 276 278 280 282 282 281 280 279 278 276 274 274 271 270 272 275 278 279 279 278 278 281 284 285 285 285 284 284 284
266 268 270 271 271 270 270 272 273 272 272 271 270 269 270 271 272 272 273 273 275 275 274 272 271 270 272 272 273 275 275 275 275 275 275 275 275 275 276 276 274 274 274 274 275 275 274 275 276 277 277 276 275 274 274 275 276 277 277 279 282 284 283 281 281 281 280 278 277 278 277 276 275 274 275 277 278 279 279 280 280 281 282 283 283 283 284 283
262 264 266 266 266 266 265 266 268 268 268 266 266 269 271 270 270 272 273 272 273 273 272 272 272 271 271 271 271 272 272 272 272 272 273 273 273 274 275 274 273 273 274 275 276 277 276 276 276 276 277 277 277 277 278 278 279 281 282 283 284 282 281 281 281 281 280 279 279 281 280 279 279 278 277 279 280 280 280 280 280 281 282 282 282 283 283 282
267 266 266 265 264 265 265 264 262 261 262 262 261 265 268 269 271 274 274 273 272 272 272 272 272 272 271 271 271 271 272 273 273 274 274 275 275 275 275 275 275 275 276 277 278 279 280 280 277 275 277 280 280 280 280 282 284 285 286 284 282 280 280 280 279 279 280 280 280 281 281 280 280 281 281 282 283 282 282 281 281 281 280 280 280 280 280 281
271 270 269 267 266 267 268 268 265 264 264 263 263 266 268 270 272 273 273 272 272 273 273 272 273 273 272 272 273 273 274 275 276 276 277 277 278 278 277 277 277 278 278 279 280 281 282 283 282 279 279 280 282 282 283 285 285 285 283 282 281 281 281 279 278 278 278 278 279 281 281 280 282 283 282 282 282 281 281 281 280 278 277 277 277 278 278 278
273 272 271 270 268 267 267 268 268 268 269 269 270 272 272 272 273 273 273 272 273 274 275 275 276 276 276 277 277 277 277 277 277 277 277 278 279 279 279 280 281 281 281 281 282 283 284 284 285 284 282 281 283 285 286 285 283 282 281 281 281 280 280 278 277 277 277 277 278 278 278 279 282 283 281 280 280 279 279 278 278 277 277 277 277 276 276 275
273 273 273 272 270 269 268 267 267 269 271 272 274 276 276 276 276 275 274 273 273 274 275 276 277 278 279 280 280 279 279 278 277 277 277 278 278 279 280 280 281 282 282 283 284 284 285 285 285 285 285 285 286 287 286 283 282 280 279 279 279 278 278 278 278 281 280 278 277 278 278 278 280 279 277 276 276 277 278 277 277 277 277 277 277 276 275 275
271 272 273 272 272 271 270 269 269 269 269 271 273 275 278 278 278 277 277 277 277 277 277 278 278 279 279 279 280 280 279 279 279 279 279 278 278 278 279 280 280 281 282 282 282 283 284 285 284 285 286 287 286 285 284 282 281 280 278 278 278 278 278 277 278 280 278 275 276 276 276 277 277 275 274 274 274 276 276 276 276 275 275 276 276 276 276 275
269 270 270 271 271 271 270 270 271 271 272 272 271 271 272 273 274 275 276 277 278 279 279 279 279 279 278 279 279 279 280 280 280 280 281 280 280 280 280 280 280 280 280 281 281 282 282 283 284 284 285 284 283 283 283 281 280 279 279 278 278 279 279 277 276 277 275 273 274 273 273 275 275 273 271 272 272 273 273 272 272 271 271 272 273 273 273 273
268 269 269 269 270 270 270 272 273 274 274 273 272 271 271 272 273 273 274 275 276 276 276 277 278 278 278 279 279 279 279 279 279 280 279 280 281 281 281 280 280 279 279 279 280 281 280 280 280 281 281 281 282 282 281 279 278 277 276 276 276 276 276 274 273 273 272 271 271 271 271 274 275 274 272 272 272 271 270 269 268 267 268 268 268 269 270 270
268 269 269 270 270 270 271 272 273 273 273 273 273 273 273 274 274 274 273 273 273 273 274 275 276 277 277 278 278 278 278 277 278 278 279 279 280 279 279 279 278 278 278 279 279 279 277 277 276 276 276 277 278 278 277 276 276 275 274 275 276 276 276 276 275 272 271 272 272 271 271 273 274 273 272 272 272 271 269 268 267 267 267 267 267 267 268 268
268 269 269 270 270 271 271 272 272 272 273 272 272 272 272 273 273 271 271 271 272 273 274 275 275 276 276 277 277 276 276 276 276 277 279 279 279 278 278 278 278 278 278 278 277 276 275 275 274 274 275 276 277 277 277 276 275 275 275 275 276 277 277 277 275 273 274 274 272 271 272 273 272 271 272 272 272 271 270 269 268 268 267 267 267 267 268 268
267 268 268 269 269 270 270 271 271 271 271 270 270 271 271 271 271 271 271 272 273 273 273 274 275 276 276 276 275 274 274 274 274 276 277 277 277 277 277 277 276 276 276 276 276 275 275 274 274 275 275 275 276 277 276 276 275 275 276 276 275 276 275 275 274 273 274 273 271 271 273 273 273 273 272 272 272 272 272 271 270 270 270 270 269 269 269 269
267 267 268 268 268 269 269 270 270 270 269 269 269 270 271 271 272 272 272 272 272 272 273 274 274 274 274 274 274 274 274 274 274 274 275 275 275 275 276 276 275 275 275 275 275 275 274 274 275 274 274 274 274 275 275 275 275 275 275 275 275 274 274 274 274 274 274 273 274 275 275 274 274 275 274 273 273 273 273 272 272 272 272 271 271 271 270 270
266 267 267 267 268 268 268 269 269 269 269 269 270 271 272 272 272 271 271 271 271 272 272 273 273 272 272 272 272 273 274 274 274 275 275 275 274 274 275 274 274 274 275 274 275 274 274 275 276 275 275 275 275 275 276 275 275 275 275 274 274 274 274 274 274 275 275 275 276 277 276 275 275 275 274 274 274 273 273 273 273 273 273 272 272 271 270 270
265 266 266 267 267 267 268 268 269 269 269 270 270 271 271 271 270 270 270 270 271 271 271 272 272 272 271 271 271 272 273 273 274 274 274 274 274 274 274 274 275 275 275 275 275 275 275 276 277 277 277 277 278 278 277 275 275 275 274 274 276 276 276 275 275 275 275 275 275 275 275 274 275 275 275 275 274 274 274 273 273 273 272 270 268 267 268 267
264 265 265 265 266 266 267 268 268 268 269 270 271 271 270 270 271 270 270 270 271 271 271 271 272 272 272 272 272 273 273 273 273 274 274 274 274 275 275 275 276 276 277 277 277 276 277 278 279 279 278 279 281 280 277 276 275 274 274 277 280 279 277 277 276 275 275 275 275 274 274 275 275 275 275 275 274 274 273 273 272 271 270 269 268 268 269 270
264 264 264 264 265 265 266 267 267 268 269 269 270 270 270 271 271 270 271 271 271 272 272 272 273 273 272 273 273 273 273 274 274 275 275 275 275 276 275 276 277 277 279 279 278 278 279 280 280 280 279 280 281 280 278 276 274 274 280 284 282 279 277 276 275 274 275 275 276 275 275 276 276 276 275 275 274 274 273 273 272 271 270 270 270 271 273 274
Height
5887 5888 5888 5889 5889 5889 5889 5889 5890 5890 5890 5890 5890 5890 5890 5890 5890 5891 5891 5891 5891 5891 5891 5891 5891 5891 5891 5891 5891 5891 5890 5890 5890 5890 5890 5890 5890 5889 5889 5888 5888 5887 5887 5886 5886 5885 5884 5884 5883 5883 5882 5882 5882 5881 5881 5880 5880 5880 5880 5879 5878 5876 5875 5873 5872 5872 5872 5872 5871 5870 5869 5869 5867 5865 5866 5865 5864 5862 5861 5859 5858 5859 5857 5857 5858 5858 5857 5857
5885 5886 5886 5887 5887 5887 5887 5888 5888 5888 5888 5888 5888 5888 5889 5889 5889 5889 5889 5889 5889 5889 5889 5889 5889 5889 5889 5889 5889 5889 5888 5888 5888 5888 5888 5888 5887 5887 5886 5886 5885 5885 5884 5884 5883 5882 5882 5881 5881 5881 5880 5880 5880 5879 5879 5879 5878 5878 5878 5877 5876 5873 5873 5871 5869 5869 5869 5869 5868 5867 5867 5866 5865 5864 5863 5863 5862 5861 5859 5856 5856 5857 5855 5853 5855 5856 5855 5854
5883 5883 5884 5884 5885 5885 5885 5885 5885 5886 5886 5886 5886 5886 5887 5887 5887 5887 5887 5887 5887 5887 5887 5887 5887 5887 5887 5887 5887 5887 5887 5886 5885 5885 5885 5885 5885 5884 5884 5883 5883 5883 5882 5881 5881 5880 5879 5879 5878 5878 5878 5878 5877 5877 5876 5876 5876 5876 5875 5875 5873 5871 5870 5869 5867 5866 5866 5866 5866 5865 5864 5863 5862 5862 5861 5861 5860 5860 5858 5854 5853 5855 5854 5851 5851 5852 5853 5852
5880 5881 5881 5882 5882 5882 5882 5883 5883 5883 5883 5884 5884 5884 5884 5884 5885 5885 5885 5885 5885 5885 5885 5885 5885 5885 5885 5885 5885 5885 5884 5883 5882 5882 5883 5882 5882 5881 5881 5881 5880 5880 5879 5879 5878 5877 5877 5876 5876 5876 5875 5875 5875 5874 5873 5873 5873 5874 5873 5872 5871 5869 5868 5866 5864 5864 5863 5863 5863 5862 5861 5861 5860 5859 5859 5858 5858 5859 5856 5851 5850 5853 5852 5850 5849 5849 5849 5850
5878 5878 5878 5879 5879 5879 5880 5880 5880 5881 5881 5881 5881 5882 5882 5882 5882 5882 5882 5882 5882 5882 5882 5882 5882 5883 5883 5883 5883 5882 5882 5880 5878 5879 5880 5879 5879 5879 5878 5878 5877 5877 5877 5876 5875 5875 5874 5874 5873 5873 5873 5873 5872 5871 5871 5870 5869 5871 5871 5869 5867 5866 5865 5864 5862 5861 5861 5860 5860 5859 5858 5858 5857 5857 5857 5856 5856 5857 5854 5848 5847 5849 5849 5849 5849 5847 5846 5846
5874 5875 5875 5876 5876 5876 5877 5877 5877 5878 5878 5878 5879 5879 5879 5879 5879 5879 5879 5879 5879 5879 5879 5879 5879 5880 5880 5880 5880 5880 5879 5876 5874 5876 5876 5876 5876 5876 5875 5875 5875 5874 5874 5873 5873 5872 5872 5871 5871 5870 5870 5870 5869 5869 5868 5867 5866 5867 5868 5866 5864 5863 5863 5862 5860 5859 5858 5857 5856 5855 5854 5855 5854 5854 5856 5854 5854 5854 5851 5845 5844 5847 5847 5847 5847 5846 5844 5843
5871 5871 5872 5872 5873 5873 5874 5874 5874 5875 5875 5875 5876 5876 5876 5876 5876 5876 5876 5876 5876 5876 5876 5876 5876 5877 5876 5877 5877 5877 5877 5872 5870 5873 5874 5873 5873 5872 5872 5872 5872 5871 5871 5870 5870 5869 5869 5868 5868 5867 5868 5867 5867 5866 5864 5864 5864 5864 5865 5864 5861 5861 5860 5859 5858 5857 5855 5854 5853 5851 5851 5852 5849 5849 5854 5854 5852 5850 5847 5843 5842 5844 5845 5845 5845 5843 5841 5840
5867 5867 5868 5868 5869 5869 5870 5870 5871 5871 5872 5872 5872 5873 5873 5873 5873 5873 5872 5872 5872 5873 5873 5872 5873 5873 5873 5874 5874 5875 5873 5867 5867 5870 5870 5870 5870 5869 5869 5869 5869 5868 5868 5867 5867 5866 5866 5865 5865 5864 5864 5864 5864 5863 5861 5860 5860 5860 5860 5860 5859 5858 5857 5856 5855 5854 5852 5851 5849 5847 5848 5849 5846 5845 5851 5853 5849 5845 5842 5841 5840 5841 5842 5841 5841 5840 5838 5837
5863 5863 5864 5865 5865 5865 5866 5867 5867 5867 5868 5868 5869 5869 5869 5869 5869 5869 5868 5868 5868 5869 5869 5869 5869 5869 5870 5870 5871 5873 5869 5864 5866 5867 5867 5867 5867 5866 5867 5867 5866 5866 5865 5864 5864 5863 5862 5862 5861 5860 5860 5861 5861 5860 5859 5857 5857 5857 5856 5856 5856 5855 5854 5853 5852 5851 5848 5847 5845 5843 5844 5845 5843 5842 5847 5851 5846 5840 5839 5838 5838 5838 5839 5838 5837 5836 5835 5835
5859 5860 5860 5861 5861 5862 5862 5863 5863 5863 5864 5864 5865 5865 5865 5865 5865 5865 5865 5865 5865 5865 5865 5865 5866 5866 5867 5867 5869 5870 5864 5862 5864 5864 5863 5864 5864 5864 5864 5864 5863 5863 5862 5861 5860 5859 5859 5858 5858 5856 5856 5857 5857 5856 5855 5853 5853 5853 5852 5852 5852 5851 5851 5850 5849 5847 5844 5843 5841 5838 5839 5842 5841 5840 5844 5846 5840 5837 5836 5836 5835 5835 5836 5835 5834 5833 5832 5832
5856 5856 5857 5857 5858 5858 5859 5859 5859 5860 5860 5860 5861 5861 5861 5861 5861 5861 5861 5861 5861 5862 5862 5862 5862 5863 5864 5865 5867 5867 5862 5861 5861 5860 5860 5860 5860 5861 5861 5861 5860 5859 5858 5858 5856 5856 5855 5854 5854 5852 5852 5853 5853 5852 5851 5850 5848 5848 5848 5848 5848 5847 5847 5847 5845 5843 5840 5839 5838 5833 5833 5838 5838 5837 5841 5840 5834 5833 5834 5834 5833 5832 5832 5832 5831 5830 5829 5829
5852 5852 5853 5854 5854 5855 5855 5855 5856 5856 5856 5857 5857 5857 5858 5858 5858 5858 5858 5858 5857 5858 5858 5858 5859 5859 5860 5862 5864 5862 5860 5859 5858 5856 5856 5856 5857 5858 5857 5857 5856 5855 5854 5854 5853 5852 5851 5850 5850 5849 5848 5848 5849 5848 5848 5847 5845 5844 5843 5842 5844 5843 5843 5844 5840 5838 5837 5836 5835 5829 5825 5832 5836 5836 5836 5834 5830 5830 5830 5831 5831 5829 5830 5829 5829 5827 5826 5825
5848 5848 5849 5850 5850 5851 5851 5852 5852 5852 5853 5853 5853 5854 5854 5854 5854 5854 5854 5854 5854 5854 5854 5854 5854 5855 5855 5859 5860 5858 5857 5857 5855 5853 5853 5852 5853 5854 5853 5853 5852 5851 5851 5850 5849 5848 5847 5847 5846 5845 5845 5844 5845 5844 5843 5843 5841 5840 5838 5836 5838 5837 5839 5840 5836 5835 5836 5832 5830 5824 5817 5823 5833 5834 5832 5829 5826 5826 5826 5827 5827 5827 5828 5826 5825 5824 5823 5823
5844 5844 5845 5845 5846 5847 5847 5848 5848 5848 5849 5849 5849 5850 5850 5850 5850 5850 5850 5850 5850 5850 5850 5850 5850 5850 5851 5855 5856 5854 5853 5852 5851 5850 5849 5849 5849 5849 5849 5849 5848 5847 5846 5846 5845 5844 5843 5843 5842 5841 5841 5841 5841 5841 5839 5838 5837 5836 5834 5832 5832 5830 5833 5837 5835 5833 5834 5829 5825 5821 5812 5815 5827 5832 5830 5825 5823 5822 5821 5824 5824 5823 5824 5823 5822 5821 5820 5820
5839 5840 5840 5841 5842 5842 5843 5843 5844 5844 5844 5845 5845 5845 5846 5846 5846 5846 5846 5846 5845 5845 5845 5845 5845 5845 5846 5850 5852 5850 5850 5848 5846 5846 5846 5846 5846 5845 5845 5844 5844 5843 5842 5842 5841 5840 5839 5838 5837 5837 5837 5837 5837 5837 5835 5832 5832 5832 5829 5826 5827 5825 5826 5832 5833 5832 5830 5825 5821 5817 5809 5809 5820 5828 5827 5822 5820 5819 5817 5819 5821 5820 5820 5819 5818 5817 5815 5815
5835 5835 5836 5836 5837 5838 5838 5839 5839 5839 5840 5840 5840 5841 5841 5841 5841 5841 5841 5841 5841 5841 5841 5840 5841 5840 5841 5845 5847 5846 5845 5843 5842 5842 5842 5842 5842 5841 5841 5840 5839 5838 5838 5837 5837 5836 5835 5833 5833 5832 5833 5833 5834 5833 5829 5825 5826 5828 5824 5821 5822 5822 5821 5825 5829 5829 5826 5820 5815 5813 5808 5805 5813 5821 5822 5820 5817 5814 5813 5815 5816 5815 5815 5814 5813 5812 5811 5811
5830 5831 5831 5832 5832 5833 5833 5834 5834 5834 5835 5836 5836 5836 5837 5836 5837 5836 5836 5836 5836 5836 5836 5835 5836 5835 5835 5839 5841 5841 5840 5838 5838 5838 5838 5838 5838 5837 5836 5836 5835 5834 5834 5833 5832 5832 5830 5829 5828 5827 5828 5830 5831 5829 5822 5819 5821 5822 5820 5817 5817 5818 5816 5817 5822 5825 5821 5815 5810 5808 5806 5805 5807 5811 5814 5816 5814 5810 5808 5810 5811 5810 5809 5809 5809 5808 5806 5804
5825 5826 5826 5827 5827 5828 5828 5829 5829 5829 5830 5831 5831 5831 5831 5831 5831 5831 5831 5831 5831 5831 5831 5830 5831 5830 5830 5834 5835 5834 5834 5834 5833 5833 5833 5834 5833 5833 5832 5832 5831 5830 5830 5828 5828 5827 5825 5824 5822 5822 5825 5827 5826 5822 5817 5816 5817 5816 5815 5814 5812 5812 5812 5812 5815 5817 5814 5809 5806 5804 5803 5802 5802 5803 5808 5811 5810 5806 5804 5806 5806 5804 5804 5804 5804 5802 5800 5797
5820 5820 5821 5821 5822 5822 5823 5823 5823 5824 5824 5825 5826 5825 5825 5825 5826 5826 5826 5826 5826 5826 5825 5825 5826 5825 5825 5828 5828 5827 5828 5829 5828 5828 5829 5830 5829 5829 5828 5827 5827 5826 5825 5824 5823 5822 5821 5819 5816 5818 5823 5823 5819 5816 5813 5813 5812 5810 5809 5808 5807 5806 5806 5808 5809 5809 5806 5802 5801 5803 5801 5797 5796 5798 5801 5803 5802 5801 5802 5802 5800 5799 5799 5799 5798 5796 5793 5790
5815 5815 5816 5816 5817 5817 5817 5818 5818 5818 5819 5819 5819 5820 5820 5819 5820 5820 5820 5820 5821 5821 5820 5820 5820 5820 5821 5822 5821 5820 5821 5823 5823 5824 5825 5825 5825 5824 5823 5823 5822 5821 5821 5820 5818 5817 5817 5813 5811 5816 5819 5816 5812 5811 5810 5808 5807 5805 5804 5803 5802 5800 5800 5803 5803 5801 5800 5795 5793 5799 5798 5794 5794 5794 5795 5795 5794 5796 5798 5797 5794 5794 5794 5794 5792 5789 5786 5784
5810 5810 5811 5811 5812 5812 5812 5812 5812 5813 5813 5813 5813 5813 5814 5814 5814 5814 5814 5815 5815 5814 5814 5814 5814 5814 5816 5816 5814 5814 5814 5815 5817 5820 5820 5820 5820 5819 5818 5818 5817 5816 5816 5814 5812 5813 5811 5806 5808 5813 5813 5809 5808 5807 5805 5803 5802 5801 5799 5797 5796 5795 5794 5796 5796 5795 5794 5790 5787 5790 5789 5788 5791 5791 5790 5789 5789 5791 5793 5792 5789 5788 5787 5787 5785 5782 5780 5779
5805 5805 5806 5806 5806 5807 5807 5807 5807 5807 5808 5808 5808 5808 5807 5808 5808 5808 5808 5809 5810 5810 5808 5809 5809 5808 5809 5808 5808 5808 5807 5808 5811 5813 5814 5814 5814 5814 5813 5812 5811 5811 5810 5808 5809 5808 5804 5802 5805 5807 5805 5804 5803 5802 5800 5798 5798 5796 5795 5792 5790 5791 5789 5788 5790 5790 5788 5785 5782 5782 5780 5780 5783 5784 5784 5785 5786 5787 5787 5786 5784 5782 5781 5780 5778 5777 5776 5776
5799 5799 5800 5800 5800 5801 5801 5801 5801 5802 5802 5802 5802 5802 5802 5802 5803 5803 5802 5802 5804 5806 5804 5803 5802 5801 5801 5800 5801 5802 5801 5803 5805 5806 5807 5807 5807 5807 5806 5806 5805 5804 5804 5804 5804 5801 5797 5797 5800 5800 5799 5798 5797 5795 5794 5793 5793 5792 5790 5787 5785 5786 5784 5782 5783 5784 5783 5780 5778 5776 5774 5774 5774 5774 5777 5778 5780 5782 5781 5779 5778 5775 5774 5773 5773 5774 5772 5772
5794 5794 5794 5794 5794 5794 5794 5794 5795 5796 5796 5796 5796 5796 5797 5797 5797 5797 5796 5795 5796 5799 5800 5800 5797 5794 5794 5794 5795 5796 5796 5797 5798 5799 5800 5799 5800 5800 5800 5800 5799 5798 5798 5799 5797 5794 5793 5793 5794 5794 5792 5792 5791 5789 5788 5787 5787 5786 5785 5782 5781 5781 5780 5778 5777 5776 5776 5775 5774 5771 5768 5767 5766 5767 5770 5770 5771 5773 5774 5773 5771 5767 5767 5768 5769 5770 5768 5768
5788 5788 5788 5789 5788 5788 5788 5788 5788 5789 5790 5790 5790 5790 5791 5791 5792 5792 5791 5789 5789 5790 5792 5793 5792 5789 5789 5789 5789 5790 5790 5791 5791 5791 5791 5792 5792 5792 5793 5792 5791 5792 5792 5791 5789 5788 5788 5788 5788 5788 5786 5785 5784 5783 5782 5781 5781 5780 5779 5777 5776 5776 5775 5774 5773 5771 5769 5768 5769 5768 5764 5762 5761 5761 5764 5764 5763 5764 5765 5765 5762 5760 5763 5765 5765 5764 5764 5764
5781 5782 5782 5782 5782 5782 5782 5782 5782 5783 5783 5783 5784 5784 5785 5785 5786 5786 5786 5784 5783 5783 5782 5783 5785 5785 5785 5785 5785 5785 5784 5784 5785 5784 5784 5785 5785 5785 5785 5785 5784 5784 5784 5783 5782 5782 5782 5782 5782 5781 5780 5779 5778 5778 5777 5775 5773 5773 5773 5772 5771 5771 5770 5769 5768 5766 5764 5762 5762 5762 5759 5757 5757 5757 5757 5757 5755 5755 5757 5757 5753 5754 5757 5760 5760 5760 5760 5760
5775 5776 5776 5776 5776 5776 5776 5776 5777 5777 5777 5777 5778 5778 5779 5779 5780 5781 5781 5778 5778 5777 5773 5773 5776 5778 5779 5780 5780 5781 5779 5779 5779 5778 5778 5778 5778 5779 5778 5778 5777 5776 5776 5775 5775 5776 5776 5775 5775 5775 5774 5772 5773 5773 5771 5768 5767 5767 5767 5766 5765 5765 5764 5763 5762 5761 5759 5758 5757 5756 5755 5754 5753 5753 5752 5751 5749 5747 5749 5749 5747 5749 5751 5754 5756 5756 5756 5755
5769 5769 5769 5769 5769 5769 5769 5770 5771 5771 5771 5771 5772 5772 5773 5774 5775 5776 5776 5772 5771 5770 5767 5767 5769 5771 5772 5772 5773 5775 5773 5774 5774 5772 5772 5772 5771 5772 5772 5772 5771 5770 5770 5769 5768 5769 5769 5768 5768 5768 5767 5767 5767 5767 5764 5762 5761 5762 5761 5760 5759 5759 5758 5757 5756 5754 5754 5753 5752 5751 5751 5751 5750 5750 5747 5745 5744 5741 5742 5741 5740 5743 5745 5747 5751 5752 5752 5751
5763 5763 5763 5763 5763 5763 5763 5764 5765 5765 5765 5765 5765 5766 5767 5769 5770 5771 5769 5766 5763 5763 5763 5764 5764 5765 5765 5764 5766 5768 5767 5767 5767 5766 5767 5766 5766 5766 5765 5765 5764 5764 5763 5763 5763 5763 5763 5762 5762 5761 5762 5762 5761 5760 5759 5758 5757 5756 5756 5755 5754 5753 5752 5751 5750 5749 5748 5747 5748 5748 5748 5747 5747 5746 5743 5742 5741 5738 5739 5738 5735 5736 5738 5740 5743 5744 5745 5745
5757 5757 5757 5757 5757 5757 5757 5758 5759 5759 5759 5759 5759 5760 5762 5763 5764 5764 5761 5759 5757 5757 5759 5759 5758 5759 5760 5759 5759 5759 5759 5760 5759 5760 5761 5761 5761 5760 5760 5759 5758 5757 5757 5757 5758 5758 5758 5757 5757 5757 5757 5757 5756 5755 5755 5754 5752 5752 5751 5750 5749 5747 5746 5745 5744 5745 5743 5742 5745 5746 5745 5744 5743 5740 5737 5739 5738 5736 5736 5734 5730 5730 5731 5731 5734 5736 5736 5736
5751 5751 5751 5751 5751 5751 5751 5751 5752 5753 5753 5754 5754 5755 5756 5756 5758 5757 5753 5753 5753 5752 5754 5754 5752 5754 5754 5753 5753 5751 5752 5752 5752 5753 5754 5754 5755 5755 5755 5754 5753 5752 5751 5751 5752 5752 5752 5752 5752 5753 5753 5752 5750 5749 5749 5749 5748 5747 5746 5745 5743 5741 5740 5739 5739 5740 5738 5738 5742 5742 5740 5740 5739 5735 5732 5734 5735 5732 5731 5728 5724 5724 5725 5724 5724 5726 5728 5729
5744 5745 5745 5746 5746 5745 5745 5745 5746 5747 5746 5747 5748 5748 5750 5750 5750 5749 5747 5749 5748 5746 5748 5748 5746 5748 5747 5747 5747 5745 5745 5745 5744 5745 5746 5747 5749 5750 5750 5749 5747 5746 5744 5745 5745 5744 5745 5746 5746 5746 5746 5746 5743 5742 5743 5742 5742 5741 5740 5740 5737 5735 5734 5732 5732 5733 5733 5735 5736 5736 5734 5732 5733 5732 5730 5730 5730 5728 5726 5723 5720 5719 5719 5719 5718 5716 5717 5719
5738 5739 5739 5740 5740 5740 5740 5740 5739 5740 5740 5740 5740 5741 5742 5742 5742 5742 5743 5745 5743 5741 5742 5742 5740 5741 5742 5741 5741 5738 5738 5737 5737 5738 5738 5740 5741 5743 5743 5742 5741 5739 5737 5738 5738 5737 5738 5740 5741 5739 5739 5739 5737 5736 5735 5735 5735 5733 5733 5733 5730 5729 5727 5723 5725 5726 5726 5728 5727 5727 5726 5725 5727 5727 5725 5726 5723 5721 5722 5719 5714 5713 5713 5713 5713 5711 5708 5707
5732 5733 5733 5733 5734 5733 5734 5733 5733 5734 5734 5734 5734 5734 5735 5735 5736 5736 5737 5738 5737 5734 5736 5735 5735 5735 5736 5735 5734 5732 5731 5730 5731 5732 5731 5732 5733 5735 5736 5736 5735 5732 5730 5730 5730 5730 5730 5733 5736 5732 5731 5734 5732 5730 5728 5727 5727 5726 5727 5726 5723 5725 5722 5717 5719 5719 5718 5717 5716 5718 5717 5719 5724 5722 5719 5719 5714 5714 5717 5713 5708 5707 5706 5705 5705 5704 5702 5700
5725 5726 5727 5727 5727 5727 5727 5727 5727 5728 5727 5728 5728 5728 5730 5732 5732 5731 5731 5731 5730 5729 5730 5730 5730 5729 5729 5729 5729 5728 5726 5723 5724 5725 5724 5725 5726 5728 5729 5730 5729 5727 5724 5722 5722 5722 5720 5724 5729 5725 5723 5727 5726 5723 5722 5721 5720 5720 5720 5718 5717 5720 5718 5712 5710 5710 5710 5707 5705 5709 5709 5712 5719 5717 5713 5711 5707 5708 5709 5706 5704 5701 5699 5697 5696 5695 5694 5693
5718 5719 5720 5721 5721 5720 5720 5721 5721 5720 5720 5721 5719 5721 5726 5729 5728 5726 5726 5726 5724 5723 5722 5721 5723 5723 5723 5724 5724 5723 5720 5718 5718 5717 5718 5719 5719 5721 5723 5723 5723 5721 5718 5715 5713 5713 5711 5714 5721 5719 5715 5717 5717 5716 5716 5715 5714 5712 5712 5712 5712 5712 5709 5704 5700 5699 5701 5696 5696 5702 5702 5704 5710 5709 5707 5704 5701 5702 5701 5699 5698 5694 5692 5690 5687 5686 5685 5684
5711 5712 5714 5715 5714 5713 5714 5716 5715 5714 5714 5713 5711 5714 5719 5721 5721 5720 5719 5719 5717 5715 5714 5713 5715 5716 5716 5717 5718 5717 5713 5712 5711 5711 5712 5712 5711 5714 5717 5716 5715 5714 5712 5709 5705 5705 5703 5704 5712 5713 5707 5706 5708 5708 5707 5707 5707 5704 5704 5706 5706 5702 5699 5697 5692 5690 5691 5686 5685 5692 5695 5697 5700 5700 5699 5696 5693 5694 5693 5692 5689 5685 5684 5683 5680 5679 5677 5675
5703 5705 5708 5710 5709 5707 5708 5709 5708 5708 5707 5705 5706 5710 5712 5713 5715 5714 5711 5711 5709 5707 5706 5706 5706 5707 5707 5708 5710 5709 5707 5705 5704 5704 5704 5704 5704 5708 5710 5708 5707 5707 5705 5702 5698 5697 5694 5693 5701 5707 5702 5697 5698 5700 5699 5699 5699 5696 5695 5696 5695 5692 5691 5690 5685 5683 5682 5678 5676 5681 5684 5686 5689 5693 5692 5686 5684 5685 5682 5682 5681 5677 5677 5675 5672 5671 5669 5668
5694 5696 5699 5702 5702 5700 5700 5700 5700 5699 5698 5699 5702 5705 5706 5708 5708 5707 5705 5704 5702 5699 5699 5699 5699 5698 5699 5701 5702 5702 5701 5699 5698 5697 5696 5696 5697 5700 5701 5700 5699 5699 5697 5695 5692 5690 5688 5683 5686 5696 5697 5690 5688 5691 5693 5693 5691 5688 5686 5684 5684 5683 5682 5681 5678 5677 5675 5670 5668 5670 5670 5673 5678 5684 5684 5678 5676 5675 5672 5672 5671 5668 5667 5666 5664 5663 5661 5661
5685 5686 5689 5693 5692 5691 5692 5691 5690 5690 5689 5693 5697 5697 5698 5700 5700 5700 5699 5696 5694 5692 5691 5692 5691 5690 5692 5693 5694 5694 5693 5691 5692 5690 5688 5689 5690 5691 5691 5691 5690 5690 5688 5686 5684 5682 5680 5676 5674 5680 5686 5683 5681 5682 5683 5683 5682 5679 5677 5675 5675 5675 5673 5671 5669 5671 5669 5662 5660 5659 5657 5661 5667 5671 5672 5669 5666 5665 5663 5663 5662 5660 5659 5657 5655 5654 5652 5652
5677 5676 5680 5684 5682 5682 5683 5680 5681 5683 5683 5685 5689 5688 5688 5690 5692 5692 5690 5688 5686 5684 5684 5684 5683 5683 5684 5684 5684 5684 5682 5682 5683 5682 5681 5683 5683 5682 5682 5683 5682 5681 5679 5678 5677 5674 5672 5669 5665 5667 5671 5674 5676 5674 5671 5671 5671 5670 5668 5668 5668 5667 5666 5661 5656 5661 5662 5653 5651 5651 5645 5649 5657 5659 5660 5660 5656 5656 5655 5654 5653 5651 5649 5646 5645 5644 5642 5642
5670 5669 5672 5674 5672 5673 5674 5671 5673 5676 5675 5679 5682 5681 5679 5680 5682 5681 5679 5678 5677 5676 5676 5675 5675 5675 5675 5675 5675 5674 5673 5672 5673 5674 5673 5674 5675 5674 5674 5675 5674 5673 5671 5669 5669 5668 5664 5661 5657 5657 5659 5663 5667 5666 5662 5660 5660 5660 5658 5659 5661 5659 5659 5654 5647 5651 5652 5644 5644 5644 5635 5637 5647 5650 5649 5648 5647 5647 5646 5644 5643 5641 5639 5637 5635 5633 5632 5632
5663 5662 5664 5666 5664 5664 5664 5663 5666 5667 5667 5672 5674 5672 5671 5672 5673 5673 5671 5669 5668 5667 5667 5666 5666 5667 5665 5666 5666 5665 5664 5662 5662 5665 5664 5664 5666 5666 5666 5667 5665 5664 5663 5661 5661 5660 5658 5654 5650 5648 5650 5652 5655 5657 5655 5652 5652 5651 5650 5652 5653 5652 5651 5647 5642 5642 5640 5636 5639 5637 5627 5628 5638 5642 5640 5639 5638 5638 5636 5635 5634 5631 5630 5628 5626 5624 5623 5621
5655 5654 5656 5657 5656 5656 5655 5657 5659 5659 5660 5663 5662 5662 5663 5663 5665 5666 5663 5661 5660 5659 5659 5658 5659 5658 5657 5658 5657 5657 5656 5653 5653 5657 5656 5655 5657 5658 5658 5658 5657 5656 5655 5653 5653 5652 5650 5648 5645 5642 5641 5642 5644 5647 5647 5645 5644 5642 5642 5644 5645 5646 5645 5640 5637 5636 5629 5627 5632 5628 5619 5622 5630 5631 5631 5631 5629 5628 5627 5625 5623 5622 5620 5619 5617 5615 5613 5611
5646 5645 5646 5648 5647 5647 5648 5651 5651 5650 5651 5652 5652 5654 5655 5654 5656 5656 5654 5653 5652 5651 5651 5650 5651 5651 5650 5649 5649 5649 5649 5646 5645 5646 5648 5649 5649 5649 5650 5650 5649 5648 5647 5646 5645 5644 5641 5640 5640 5637 5633 5633 5635 5637 5638 5637 5635 5634 5634 5635 5635 5636 5635 5631 5630 5626 5619 5618 5621 5617 5613 5616 5621 5621 5621 5621 5619 5617 5615 5614 5612 5611 5610 5608 5607 5604 5603 5601
5637 5637 5638 5639 5638 5638 5640 5642 5643 5642 5643 5643 5643 5646 5648 5647 5647 5647 5645 5645 5644 5643 5643 5643 5643 5643 5643 5642 5641 5640 5641 5640 5637 5637 5640 5642 5640 5640 5641 5641 5641 5640 5639 5638 5637 5636 5632 5630 5632 5631 5627 5626 5626 5628 5630 5628 5625 5623 5624 5626 5626 5626 5626 5624 5618 5613 5611 5609 5606 5607 5608 5607 5609 5613 5613 5610 5607 5605 5604 5603 5602 5600 5599 5598 5597 5594 5593 5591
5629 5629 5630 5631 5629 5630 5632 5634 5634 5634 5635 5635 5634 5637 5641 5640 5638 5638 5638 5637 5636 5637 5636 5635 5636 5635 5635 5635 5632 5630 5633 5633 5630 5630 5633 5634 5632 5632 5632 5633 5633 5632 5631 5630 5628 5627 5623 5620 5624 5624 5619 5619 5620 5620 5621 5618 5614 5613 5613 5615 5617 5617 5617 5615 5608 5605 5606 5599 5591 5599 5605 5598 5597 5604 5603 5598 5595 5592 5591 5591 5590 5589 5588 5587 5586 5584 5582 5580
5621 5621 5621 5622 5621 5622 5624 5625 5626 5626 5626 5626 5626 5629 5632 5632 5631 5630 5630 5629 5628 5629 5628 5627 5629 5628 5627 5627 5624 5622 5625 5625 5623 5624 5625 5625 5625 5623 5622 5624 5624 5623 5623 5621 5619 5619 5613 5610 5616 5615 5609 5611 5613 5612 5611 5608 5604 5604 5603 5603 5606 5607 5607 5605 5599 5598 5598 5588 5582 5590 5594 5586 5586 5591 5588 5584 5583 5581 5578 5578 5577 5577 5576 5575 5574 5572 5571 5569
5613 5613 5613 5612 5614 5615 5615 5616 5618 5617 5617 5617 5618 5621 5624 5624 5623 5622 5621 5621 5620 5621 5620 5619 5620 5621 5620 5619 5616 5614 5616 5616 5615 5616 5617 5616 5615 5615 5614 5614 5614 5614 5614 5612 5611 5609 5604 5602 5606 5604 5599 5601 5605 5604 5602 5597 5593 5593 5593 5593 5594 5596 5596 5593 5589 5590 5588 5580 5577 5580 5577 5573 5576 5578 5574 5572 5571 5568 5566 5565 5564 5563 5563 5562 5561 5560 5559 5558
5605 5605 5605 5604 5606 5607 5606 5607 5609 5609 5609 5608 5609 5614 5615 5614 5615 5613 5611 5612 5611 5612 5612 5611 5611 5612 5612 5611 5609 5607 5608 5608 5607 5607 5609 5607 5606 5606 5605 5604 5605 5606 5605 5604 5602 5599 5595 5595 5595 5593 5588 5589 5594 5596 5591 5585 5583 5582 5582 5584 5586 5586 5584 5581 5580 5580 5576 5570 5570 5569 5562 5560 5564 5565 5562 5560 5557 5555 5554 5553 5552 5552 5551 5550 5549 5548 5548 5547
5597 5597 5597 5597 5597 5598 5598 5599 5600 5600 5601 5600 5601 5604 5605 5605 5607 5605 5602 5602 5603 5603 5604 5603 5603 5603 5603 5603 5602 5600 5600 5599 5598 5598 5599 5598 5597 5597 5596 5595 5596 5597 5596 5596 5593 5589 5588 5585 5585 5584 5577 5576 5584 5584 5577 5574 5572 5568 5570 5577 5580 5576 5572 5570 5569 5568 5565 5560 5558 5556 5551 5549 5551 5550 5548 5546 5543 5543 5543 5542 5542 5541 5539 5538 5537 5537 5536 5535
5588 5588 5589 5589 5589 5590 5591 5591 5591 5591 5593 5594 5593 5594 5595 5595 5597 5596 5593 5593 5594 5595 5595 5594 5594 5594 5594 5594 5593 5592 5591 5590 5589 5589 5589 5589 5588 5588 5587 5587 5587 5588 5588 5587 5583 5581 5580 5576 5575 5574 5565 5564 5573 5571 5563 5562 5555 5553 5565 5573 5569 5564 5561 5558 5556 5556 5556 5552 5545 5541 5540 5539 5538 5536 5535 5532 5531 5531 5531 5532 5532 5530 5528 5527 5525 5525 5524 5523